EW4694 Weather Reports


Display with metric or nautical units.
time (UTC)temp
F
wind
direction
speed
MPH
gust
MPH
rain 1hr
in
rain 24hr
in
rain mn
in
humidity
%
barometer
mb
20260509040011 52 293 0.0 0.0 0.00 0.00 0.00 40 1012.1
20260509034552 52 293 0.0 0.0 0.00 0.00 0.00 40 1012.1
20260509033047 52 293 0.0 0.0 0.00 0.00 0.00 44 1012.3
20260509031525 52 293 0.0 0.0 0.00 0.00 0.00 43 1012.3
20260509030027 52 293 0.0 0.0 0.00 0.00 0.00 44 1012.3
20260509024559 53 293 0.0 0.0 0.00 0.00 0.00 49 1012.4
20260509023056 53 293 0.0 0.0 0.00 0.00 0.00 51 1012.4
20260509021534 54 293 0.0 0.0 0.00 0.00 0.00 54 1012.4
20260509020030 54 293 0.0 0.0 0.00 0.00 0.00 56 1012.4
20260509014509 54 293 0.0 0.0 0.00 0.00 0.00 60 1012.1
20260509013013 54 293 0.0 0.0 0.00 0.00 0.00 54 1012.1
20260509011543 55 293 0.0 0.0 0.00 0.00 0.00 62 1012.1
20260509010043 56 293 0.0 0.0 0.00 0.00 0.00 66 1012.0
20260509004542 58 293 0.0 0.0 0.00 0.00 0.00 65 1012.0
20260509003032 59 293 0.0 0.0 0.00 0.00 0.00 63 1011.9
20260509001507 62 293 0.0 0.0 0.00 0.00 0.00 55 1011.7
20260509000006 64 293 0.0 0.0 0.00 0.00 0.00 47 1011.8
20260508234603 65 293 0.0 0.0 0.00 0.00 0.00 45 1011.9
20260508233040 65 223 0.0 0.0 0.00 0.00 0.00 46 1011.8
20260508231536 65 222 0.0 0.0 0.00 0.00 0.00 45 1011.7
20260508230035 65 277 0.0 0.0 0.00 0.00 0.00 46 1011.7
20260508224515 65 283 0.0 0.0 0.00 0.00 0.00 46 1011.8
20260508223059 66 300 0.0 0.0 0.00 0.00 0.00 44 1011.9
20260508221558 67 315 0.0 0.0 0.00 0.00 0.00 43 1011.8
20260508220050 68 277 0.0 0.0 0.00 0.00 0.00 44 1011.8
20260508214541 67 77 0.0 0.0 0.00 0.00 0.00 44 1011.7
20260508213032 67 179 0.0 0.0 0.00 0.00 0.00 48 1011.9
20260508211532 66 290 0.0 1.0 0.00 0.00 0.00 43 1012.1
20260508210023 66 286 0.0 1.0 0.00 0.00 0.00 42 1012.1
20260508204518 66 275 0.0 0.0 0.00 0.00 0.00 46 1012.3
20260508203015 66 286 0.0 0.0 0.00 0.00 0.00 44 1012.8
20260508201510 66 292 0.0 10.0 0.00 0.00 0.00 45 1013.0
20260508200051 66 289 0.0 2.0 0.00 0.00 0.00 44 1013.0
20260508194547 66 274 0.0 0.0 0.00 0.00 0.00 46 1013.3
20260508193025 65 279 0.0 0.0 0.00 0.00 0.00 44 1013.8
20260508191519 65 302 0.0 0.0 0.00 0.00 0.00 47 1014.1
20260508190103 63 243 0.0 0.0 0.00 0.00 0.00 50 1014.4
20260508184622 62 281 0.0 0.0 0.00 0.00 0.00 49 1014.6
20260508183032 63 292 0.0 1.0 0.00 0.00 0.00 47 1014.6
20260508181543 64 263 0.0 8.0 0.00 0.00 0.00 47 1014.8
20260508180007 63 341 0.0 4.0 0.00 0.00 0.00 50 1015.0
20260508174505 62 214 0.0 11.0 0.00 0.00 0.00 49 1015.2
20260508173046 61 271 0.0 9.0 0.00 0.00 0.00 47 1015.3
20260508171537 62 274 0.0 4.0 0.00 0.00 0.00 48 1015.5
20260508170017 62 292 0.0 2.0 0.00 0.00 0.00 47 1015.7
20260508164510 62 277 0.0 1.0 0.00 0.00 0.00 51 1015.8
20260508163048 62 286 0.0 1.0 0.00 0.00 0.00 47 1016.1
20260508161549 62 261 0.0 5.0 0.00 0.00 0.00 47 1016.4
20260508160023 61 227 0.0 13.0 0.00 0.00 0.00 48 1016.3
20260508154517 61 293 0.0 2.0 0.00 0.00 0.00 49 1016.5
20260508153057 60 305 0.0 0.0 0.00 0.00 0.00 48 1016.5
20260508151600 60 281 0.0 0.0 0.00 0.00 0.00 49 1016.5
20260508150034 59 246 0.0 0.0 0.00 0.00 0.00 51 1016.6
20260508144544 58 227 0.0 0.0 0.00 0.00 0.00 50 1016.7
20260508143006 58 286 0.0 0.0 0.00 0.00 0.00 53 1016.7
20260508141608 57 268 0.0 15.0 0.00 0.00 0.00 51 1016.8
20260508140049 56 273 0.0 1.0 0.00 0.00 0.00 55 1016.9
20260508134542 55 255 0.0 11.0 0.00 0.00 0.00 57 1017.1
20260508133057 53 288 0.0 0.0 0.00 0.00 0.00 63 1017.2
20260508131530 51 287 0.0 0.0 0.00 0.00 0.00 67 1017.1
20260508130025 48 283 0.0 0.0 0.00 0.00 0.00 44 1017.3
20260508124520 45 242 0.0 0.0 0.00 0.00 0.00 1 1017.2
20260508123017 43 242 0.0 0.0 0.00 0.00 0.00 1 1017.2
20260508121512 41 253 0.0 0.0 0.00 0.00 0.00 1 1017.2
20260508120053 39 265 0.0 0.0 0.00 0.00 0.00 1 1017.1
20260508114547 37 305 0.0 0.0 0.00 0.00 0.00 1 1017.0
20260508113025 36 305 0.0 0.0 0.00 0.00 0.00 1 1016.9
20260508111521 34 310 0.0 0.0 0.00 0.00 0.00 1 1016.8
20260508110101 0 0.0 0.0 0.00 0.00 0.00 1016.7
20260508104555 0 0.0 0.0 0.00 0.00 0.00 1016.5
20260508103035 0 0.0 0.0 0.00 0.00 0.00 1016.5
20260508101532 0 0.0 0.0 0.00 0.00 0.00 1016.3
20260508100018 0 0.0 0.0 0.00 0.00 0.00 1016.4
20260508094509 0 0.0 0.0 0.00 0.00 0.00 1016.3
20260508093007 32 293 0.0 0.0 0.00 0.00 0.00 1 1016.2
20260508091501 33 293 0.0 0.0 0.00 0.00 0.00 1 1016.3
20260508090110 33 293 0.0 0.0 0.00 0.00 0.00 1 1016.3
20260508084553 33 293 0.0 0.0 0.00 0.00 0.00 1 1016.3
20260508083048 33 293 0.0 0.0 0.00 0.00 0.00 1 1016.2
20260508081544 33 293 0.0 0.0 0.00 0.00 0.00 1 1016.2
20260508080022 34 293 0.0 0.0 0.00 0.00 0.00 1 1016.1
20260508074521 34 293 0.0 0.0 0.00 0.00 0.00 1 1016.0
20260508073002 34 293 0.0 0.0 0.00 0.00 0.00 1 1016.0
20260508071604 34 293 0.0 0.0 0.00 0.00 0.00 1 1016.0
20260508070054 34 293 0.0 0.0 0.00 0.00 0.00 1 1016.0
20260508064549 34 293 0.0 0.0 0.00 0.00 0.00 1 1015.9
20260508063045 35 293 0.0 0.0 0.00 0.00 0.00 1 1016.1
20260508061540 35 293 0.0 0.0 0.00 0.00 0.00 2 1016.0
20260508060036 35 293 0.0 0.0 0.00 0.00 0.00 4 1015.8
20260508054532 36 293 0.0 0.0 0.00 0.00 0.00 6 1016.0
20260508053045 36 293 0.0 0.0 0.00 0.00 0.00 9 1016.1
20260508051507 36 293 0.0 0.0 0.00 0.00 0.00 12 1016.1
20260508050002 37 293 0.0 0.0 0.00 0.00 0.00 17 1016.1
20260508044540 37 293 0.0 0.0 0.00 0.00 0.00 20 1016.0
20260508043038 38 293 0.0 0.0 0.00 0.00 0.00 26 1015.8
20260508041529 39 293 0.0 0.0 0.00 0.00 0.00 31 1015.7